When you browse on this site, cookies collect data to enhance your experience and personalize the content and advertising you see.
Visit our Privacy Policy to learn more. By continuing to use the site, you agree to this use of cookies and data.
  • In France
  • List of Countries
  • For 7 days
  • Water Temperature
  • Weather Map
  • Weather Widgets
  • user-avatar
    Login

    Hourly Weather Mainz

    Today, 19 September, Thursday

    Time Temperature Precipitation Wind Pressure Humidity
    00:00 +12°C° 0 mm 2 mps 761 mmHg 69%
    01:00 +10°C° 0 mm 2 mps 762 mmHg 68%
    02:00 +10°C° 0 mm 2 mps 761 mmHg 71%
    03:00 +10°C° 0 mm 2 mps 761 mmHg 73%
    04:00 +10°C° 0 mm 1 mps 761 mmHg 75%
    05:00 +9°C° 0 mm 2 mps 762 mmHg 76%
    06:00 +9°C° 0 mm 2 mps 762 mmHg 78%
    07:00 +9°C° 0 mm 2 mps 762 mmHg 80%
    08:00 +12°C° 0 mm 2 mps 763 mmHg 71%
    09:00 +13°C° 0 mm 2 mps 763 mmHg 62%
    10:00 +14°C° 0 mm 3 mps 763 mmHg 53%
    11:00 +16°C° 0 mm 3 mps 763 mmHg 48%
    12:00 +17°C° 0 mm 3 mps 762 mmHg 43%
    13:00 +18°C° 0 mm 3 mps 762 mmHg 38%
    14:00 +18°C° 0 mm 3 mps 762 mmHg 39%
    15:00 +18°C° 0 mm 3 mps 762 mmHg 39%
    16:00 +18°C° 0 mm 3 mps 762 mmHg 39%
    17:00 +16°C° 0 mm 3 mps 762 mmHg 44%
    18:00 +14°C° 0 mm 3 mps 762 mmHg 50%
    19:00 +12°C° 0 mm 3 mps 762 mmHg 55%
    20:00 +12°C° 0 mm 2 mps 762 mmHg 57%
    21:00 +12°C° 0 mm 2 mps 763 mmHg 59%
    22:00 +10°C° 0 mm 2 mps 763 mmHg 61%
    23:00 +10°C° 0 mm 2 mps 763 mmHg 63%

    Tomorrow, 20 September, Friday

    Time Temperature Precipitation Wind Pressure Humidity
    00:00 +9°C° 0 mm 2 mps 763 mmHg 65%
    01:00 +9°C° 0 mm 2 mps 763 mmHg 67%
    02:00 +10°C° 0 mm 1 mps 763 mmHg 68%
    03:00 +9°C° 0 mm 1 mps 763 mmHg 70%
    04:00 +9°C° 0 mm 1 mps 762 mmHg 71%
    05:00 +9°C° 0 mm 1 mps 762 mmHg 71%
    06:00 +9°C° 0 mm 1 mps 762 mmHg 71%
    07:00 +9°C° 0 mm 1 mps 762 mmHg 71%
    08:00 +10°C° 0 mm 2 mps 762 mmHg 64%
    09:00 +13°C° 0 mm 2 mps 762 mmHg 57%
    10:00 +15°C° 0 mm 2 mps 762 mmHg 50%
    11:00 +16°C° 0 mm 3 mps 761 mmHg 45%
    12:00 +17°C° 0 mm 3 mps 761 mmHg 41%
    13:00 +19°C° 0 mm 3 mps 760 mmHg 37%
    14:00 +19°C° 0 mm 3 mps 760 mmHg 37%
    15:00 +19°C° 0 mm 3 mps 759 mmHg 37%
    16:00 +20°C° 0 mm 3 mps 759 mmHg 37%
    17:00 +18°C° 0 mm 3 mps 759 mmHg 42%
    18:00 +17°C° 0 mm 2 mps 759 mmHg 47%
    19:00 +15°C° 0 mm 2 mps 759 mmHg 52%
    20:00 +15°C° 0 mm 2 mps 759 mmHg 53%
    21:00 +14°C° 0 mm 2 mps 759 mmHg 55%
    22:00 +13°C° 0 mm 2 mps 759 mmHg 56%
    23:00 +13°C° 0 mm 2 mps 758 mmHg 58%

    Day after tomorrow, 21 September, Saturday

    Time Temperature Precipitation Wind Pressure Humidity
    00:00 +12°C° 0 mm 2 mps 758 mmHg 60%
    01:00 +12°C° 0 mm 2 mps 758 mmHg 62%
    02:00 +10°C° 0 mm 2 mps 757 mmHg 64%
    03:00 +10°C° 0 mm 2 mps 757 mmHg 65%
    04:00 +9°C° 0 mm 2 mps 757 mmHg 67%
    05:00 +9°C° 0 mm 2 mps 757 mmHg 67%
    06:00 +9°C° 0 mm 2 mps 756 mmHg 68%
    07:00 +9°C° 0 mm 2 mps 756 mmHg 68%
    08:00 +12°C° 0 mm 2 mps 756 mmHg 60%
    09:00 +13°C° 0 mm 3 mps 756 mmHg 53%
    10:00 +16°C° 0 mm 3 mps 756 mmHg 45%
    11:00 +18°C° 0 mm 3 mps 755 mmHg 42%
    12:00 +19°C° 0 mm 3 mps 755 mmHg 39%
    13:00 +21°C° 0 mm 3 mps 755 mmHg 35%
    14:00 +21°C° 0 mm 3 mps 754 mmHg 36%
    15:00 +22°C° 0 mm 3 mps 753 mmHg 37%
    16:00 +22°C° 0 mm 3 mps 753 mmHg 38%
    17:00 +20°C° 0 mm 3 mps 752 mmHg 44%
    18:00 +19°C° 0 mm 2 mps 752 mmHg 49%
    19:00 +17°C° 0 mm 2 mps 752 mmHg 55%
    20:00 +16°C° 0 mm 2 mps 752 mmHg 57%
    21:00 +16°C° 0 mm 2 mps 752 mmHg 60%
    22:00 +15°C° 0 mm 2 mps 752 mmHg 62%
    23:00 +15°C° 0 mm 2 mps 752 mmHg 64%

    22 September, Sunday

    Time Temperature Precipitation Wind Pressure Humidity
    00:00 +14°C° 0 mm 2 mps 752 mmHg 67%
    01:00 +13°C° 0 mm 1 mps 751 mmHg 69%
    02:00 +13°C° 0 mm 1 mps 751 mmHg 71%
    03:00 +13°C° 0 mm 1 mps 751 mmHg 73%
    04:00 +12°C° 0 mm 1 mps 751 mmHg 74%
    05:00 +12°C° 0 mm 1 mps 750 mmHg 74%
    06:00 +13°C° 0 mm 1 mps 750 mmHg 74%
    07:00 +13°C° 0 mm 1 mps 750 mmHg 73%
    08:00 +14°C° 0 mm 1 mps 750 mmHg 68%
    09:00 +16°C° 0 mm 1 mps 750 mmHg 63%
    10:00 +18°C° 0 mm 1 mps 750 mmHg 58%
    11:00 +19°C° 0 mm 1 mps 749 mmHg 56%
    12:00 +20°C° 0 mm 1 mps 749 mmHg 53%
    13:00 +22°C° 0 mm 1 mps 749 mmHg 50%
    14:00 +22°C° 0 mm 1 mps 748 mmHg 49%
    15:00 +23°C° 0 mm 1 mps 747 mmHg 48%
    16:00 +24°C° 0 mm 2 mps 747 mmHg 47%
    17:00 +22°C° 0 mm 1 mps 747 mmHg 52%
    18:00 +21°C° 0 mm 1 mps 746 mmHg 57%
    19:00 +20°C° 0 mm 1 mps 746 mmHg 63%
    20:00 +19°C° 0 mm 1 mps 746 mmHg 66%
    21:00 +19°C° 0 mm 1 mps 746 mmHg 69%
    22:00 +18°C° 0 mm 1 mps 747 mmHg 73%
    23:00 +18°C° 0 mm 1 mps 747 mmHg 74%

    23 September, Monday

    Time Temperature Precipitation Wind Pressure Humidity
    00:00 +18°C° 0 mm 1 mps 747 mmHg 76%
    01:00 +16°C° 0 mm 0 mps 747 mmHg 77%
    02:00 +17°C° 0.1 mm 2 mps 748 mmHg 80%
    03:00 +16°C° 0.1 mm 3 mps 748 mmHg 82%
    04:00 +15°C° 0.1 mm 4 mps 749 mmHg 85%
    05:00 +15°C° 1.2 mm 4 mps 749 mmHg 86%
    06:00 +15°C° 1.2 mm 4 mps 749 mmHg 87%
    07:00 +15°C° 1.2 mm 4 mps 750 mmHg 89%
    08:00 +16°C° 0.9 mm 3 mps 750 mmHg 88%
    09:00 +16°C° 0.9 mm 3 mps 751 mmHg 88%
    10:00 +16°C° 0.9 mm 3 mps 751 mmHg 88%
    11:00 +17°C° 0.2 mm 3 mps 751 mmHg 82%
    12:00 +18°C° 0.2 mm 3 mps 751 mmHg 76%
    13:00 +19°C° 0.2 mm 3 mps 751 mmHg 70%
    14:00 +19°C° 0.1 mm 3 mps 751 mmHg 67%
    15:00 +19°C° 0.1 mm 3 mps 751 mmHg 64%
    16:00 +20°C° 0.1 mm 3 mps 751 mmHg 61%
    17:00 +19°C° 0 mm 3 mps 751 mmHg 65%
    18:00 +17°C° 0 mm 2 mps 751 mmHg 70%
    19:00 +16°C° 0 mm 2 mps 752 mmHg 74%
    20:00 +16°C° 0 mm 2 mps 752 mmHg 78%
    21:00 +15°C° 0 mm 2 mps 752 mmHg 82%
    22:00 +15°C° 0 mm 2 mps 753 mmHg 85%
    23:00 +14°C° 0 mm 2 mps 753 mmHg 86%

    24 September, Tuesday

    Time Temperature Precipitation Wind Pressure Humidity
    00:00 +14°C° 0 mm 1 mps 753 mmHg 86%
    01:00 +13°C° 0 mm 1 mps 753 mmHg 86%
    02:00 +13°C° 0 mm 1 mps 753 mmHg 86%
    03:00 +13°C° 0 mm 1 mps 753 mmHg 86%
    04:00 +12°C° 0 mm 1 mps 753 mmHg 86%
    05:00 +12°C° 0 mm 1 mps 753 mmHg 86%
    06:00 +12°C° 0 mm 1 mps 753 mmHg 86%
    07:00 +12°C° 0 mm 1 mps 753 mmHg 86%
    08:00 +14°C° 0 mm 1 mps 753 mmHg 79%
    09:00 +16°C° 0 mm 2 mps 753 mmHg 72%
    10:00 +17°C° 0 mm 2 mps 753 mmHg 64%
    11:00 +18°C° 0 mm 2 mps 753 mmHg 64%
    12:00 +18°C° 0 mm 2 mps 752 mmHg 63%
    13:00 +19°C° 0 mm 2 mps 752 mmHg 63%
    14:00 +19°C° 0 mm 1 mps 752 mmHg 65%
    15:00 +19°C° 0 mm 1 mps 752 mmHg 67%
    16:00 +19°C° 0 mm 1 mps 751 mmHg 70%
    17:00 +18°C° 0 mm 1 mps 751 mmHg 72%
    18:00 +18°C° 0 mm 1 mps 751 mmHg 74%
    19:00 +17°C° 0 mm 2 mps 751 mmHg 76%
    20:00 +16°C° 0.1 mm 2 mps 751 mmHg 78%
    21:00 +16°C° 0.1 mm 2 mps 751 mmHg 81%
    22:00 +16°C° 0.1 mm 2 mps 750 mmHg 83%
    23:00 +16°C° 0.1 mm 2 mps 750 mmHg 83%
    Show more